Location: Newark
(43.0000°N, 1.6781°W)
Time: 16:15:30
(UTC+00:00)

Tiangong - Visible Passes

Search period start: 25 September 2021 00:00
Search period end: 05 October 2021 00:00
Orbit: 382 x 385 km, 41.5° (Epoch: 25 September)

Date Brightness Start Highest point End Pass type
(mag) Time Alt. Az. Time Alt. Az. Time Alt. Az.
25 Sep 3.7 04:58:03 10° S 04:59:50 14° SSE 05:01:37 10° ESE visible
27 Sep 3.0 04:35:19 17° S 04:36:37 22° SSE 04:39:09 10° ESE visible
28 Sep 4.2 03:38:25 11° ESE 03:38:25 11° ESE 03:38:42 10° ESE visible
28 Sep 1.8 05:10:37 13° WSW 05:13:15 45° SSE 05:16:19 10° E visible
29 Sep 2.4 04:13:39 32° SSE 04:13:39 32° SSE 04:16:19 10° E visible
30 Sep 1.3 04:48:51 30° WSW 04:50:09 58° S 04:53:16 10° E visible
01 Oct 3.3 03:51:49 24° ESE 03:51:49 24° ESE 03:53:19 10° E visible
01 Oct 1.2 05:24:00 11° W 05:26:57 66° S 05:30:06 10° E visible
02 Oct 1.1 04:26:58 66° S 04:27:02 66° S 04:30:11 10° E visible
03 Oct 4.4 03:29:56 12° E 03:29:56 12° E 03:30:15 10° E visible
03 Oct 1.3 05:02:08 23° W 05:03:50 58° S 05:06:57 10° ESE visible
04 Oct 2.6 04:05:07 33° ESE 04:05:07 33° ESE 04:07:03 10° E visible
